Weather History for Farmington, MO

Change the Weather History Date:

Friday, March 8, 2013

  Actual Average Record
Temperature  
Mean Temperature 40 °F -  
Max Temperature 53 °F 49 °F 77 °F (2003)
Min Temperature 26 °F 30 °F 17 °F (2008)
Degree Days  
Heating Degree Days 26    
Moisture  
Dew Point 26 °F    
Average Humidity 59    
Maximum Humidity 93    
Minimum Humidity 28    
Precipitation  
Precipitation 0.00 in - - ()
Sea Level Pressure  
Sea Level Pressure 30.32 in    
Wind  
Wind Speed 5 mph (SE)    
Max Wind Speed 13 mph    
Max Gust Speed -    
Visibility 10 miles    
Events      
Averages and records for this station are not official NWS values.
T = Trace of Precipitation, MM = Missing Value Source: NWS Daily Summary

Daily Weather History Graph

Daily Weather History Graph

Search for Another Location

Airport:

Trip Planner

Search our weather history database for the weather conditions in past years. The results will help you decide how hot, cold, wet, or windy it might be!

Date:

Astronomy

Mar. 08, 2013 Rise Set
Actual Time 6:22 AM CST 6:02 PM CST
Civil Twilight 5:56 AM CST 6:28 PM CST
Nautical Twilight 5:26 AM CST 6:59 PM CST
Astronomical Twilight 4:55 AM CST 7:29 PM CST
Moon 4:04 AM CST (3/8) 3:00 PM CST (3/8)
Length of Visible Light 12h 32m
Length of Day
11h 39m
Waning Crescent, 11% of the Moon is Illuminated
Mar 8
Waning Crescent
Mar 11
New
Mar 19
First Quarter
Mar 27
Full
Apr 2
Last Quarter

Hourly Weather History & Observations

Time (CST) Temp. Windchill Dew Point Humidity Pressure Visibility Wind Dir Wind Speed Gust Speed Precip Events Conditions
12:15 AM 30.2 °F 26.7 °F 24.8 °F 80% 30.34 in 10.0 mi East 3.5 mph - N/A   Clear
12:35 AM 30.2 °F 26.7 °F 24.8 °F 80% 30.34 in 10.0 mi East 3.5 mph - N/A   Clear
12:55 AM 30.2 °F - 24.8 °F 80% 30.34 in 10.0 mi Calm Calm - N/A   Clear
1:15 AM 30.2 °F 26.7 °F 24.8 °F 80% 30.35 in 10.0 mi ESE 3.5 mph - N/A   Clear
1:35 AM 30.2 °F 26.7 °F 24.8 °F 80% 30.36 in 10.0 mi ESE 3.5 mph - N/A   Clear
1:55 AM 30.2 °F 26.7 °F 24.8 °F 80% 30.36 in 10.0 mi ESE 3.5 mph - N/A   Clear
2:15 AM 30.2 °F - 26.6 °F 86% 30.37 in 10.0 mi Calm Calm - N/A   Clear
2:35 AM 28.4 °F - 24.8 °F 86% 30.36 in 10.0 mi Calm Calm - N/A   Clear
2:55 AM 30.2 °F 26.7 °F 24.8 °F 80% 30.35 in 10.0 mi ESE 3.5 mph - N/A   Clear
3:15 AM 28.4 °F - 24.8 °F 86% 30.35 in 10.0 mi Calm Calm - N/A   Clear
3:35 AM 26.6 °F - 23.0 °F 86% 30.36 in 8.0 mi Calm Calm - N/A   Clear
3:55 AM 26.6 °F - 24.8 °F 93% 30.37 in 9.0 mi Calm Calm - N/A   Clear
4:15 AM 28.4 °F - 24.8 °F 86% 30.36 in 10.0 mi Calm Calm - N/A   Clear
4:35 AM 28.4 °F - 24.8 °F 86% 30.36 in 10.0 mi Calm Calm - N/A   Clear
4:55 AM 26.6 °F 22.6 °F 23.0 °F 86% 30.37 in 9.0 mi ESE 3.5 mph - N/A   Clear
5:15 AM 26.6 °F 22.6 °F 21.2 °F 80% 30.37 in 9.0 mi East 3.5 mph - N/A   Clear
5:35 AM 26.6 °F 22.6 °F 24.8 °F 93% 30.38 in 7.0 mi ESE 3.5 mph - N/A   Clear
5:55 AM 26.6 °F - 24.8 °F 93% 30.38 in 7.0 mi Calm Calm - N/A   Clear
6:15 AM 26.6 °F 22.6 °F 24.8 °F 93% 30.38 in 7.0 mi ESE 3.5 mph - N/A   Clear
6:35 AM 26.6 °F 21.2 °F 24.8 °F 93% 30.38 in 5.0 mi ESE 4.6 mph - N/A   Clear
6:55 AM 26.6 °F 20.0 °F 24.8 °F 93% 30.38 in 8.0 mi ESE 5.8 mph - N/A   Clear
7:15 AM 28.4 °F - 24.8 °F 86% 30.39 in 7.0 mi Calm Calm - N/A   Clear
7:35 AM 30.2 °F 25.4 °F 26.6 °F 86% 30.40 in 9.0 mi SSE 4.6 mph - N/A   Clear
7:55 AM 30.2 °F 22.6 °F 26.6 °F 86% 30.41 in 10.0 mi SSE 8.1 mph - N/A   Clear
8:15 AM 33.8 °F 25.3 °F 28.4 °F 81% 30.41 in 10.0 mi SE 11.5 mph - N/A   Clear
8:35 AM 33.8 °F 25.3 °F 28.4 °F 81% 30.41 in 10.0 mi SE 11.5 mph - N/A   Clear
8:55 AM 35.6 °F 28.0 °F 28.4 °F 75% 30.41 in 10.0 mi SSE 10.4 mph - N/A   Clear
9:15 AM 37.4 °F 30.8 °F 28.4 °F 70% 30.42 in 10.0 mi SE 9.2 mph - N/A   Clear
9:35 AM 39.2 °F 32.0 °F 28.4 °F 65% 30.41 in 10.0 mi SE 11.5 mph - N/A   Clear
9:55 AM 39.2 °F 33.0 °F 28.4 °F 65% 30.41 in 10.0 mi SSE 9.2 mph - N/A   Clear
10:15 AM 42.8 °F 38.0 °F 30.2 °F 61% 30.40 in 10.0 mi SE 8.1 mph - N/A   Clear
10:35 AM 42.8 °F 37.0 °F 30.2 °F 61% 30.39 in 10.0 mi East 10.4 mph - N/A   Clear
11:15 AM 46.4 °F 41.5 °F 28.4 °F 50% 30.38 in 10.0 mi SE 10.4 mph - N/A   Clear
11:35 AM 46.4 °F 41.5 °F 28.4 °F 50% 30.36 in 10.0 mi East 10.4 mph - N/A   Clear
11:55 AM 48.2 °F - 30.2 °F 50% 30.36 in 10.0 mi ESE 10.4 mph - N/A   Clear
12:15 PM 48.2 °F - 28.4 °F 46% 30.34 in 10.0 mi ESE 12.7 mph - N/A   Clear
12:35 PM 50.0 °F - 28.4 °F 43% 30.34 in 10.0 mi East 12.7 mph - N/A   Clear
12:55 PM 51.8 °F - 28.4 °F 41% 30.32 in 10.0 mi East 9.2 mph - N/A   Clear
1:15 PM 51.8 °F - 28.4 °F 41% 30.31 in 10.0 mi ESE 9.2 mph - N/A   Clear
1:35 PM 51.8 °F - 26.6 °F 38% 30.31 in 10.0 mi SE 6.9 mph - N/A   Clear
1:55 PM 53.6 °F - 28.4 °F 38% 30.30 in 10.0 mi South 11.5 mph - N/A   Clear
2:15 PM 51.8 °F - 24.8 °F 35% 30.30 in 10.0 mi ESE 10.4 mph - N/A   Clear
2:35 PM 53.6 °F - 26.6 °F 35% 30.30 in 10.0 mi SSE 11.5 mph - N/A   Clear
2:55 PM 53.6 °F - 23.0 °F 30% 30.30 in 10.0 mi SE 8.1 mph - N/A   Clear
3:15 PM 53.6 °F - 26.6 °F 35% 30.30 in 10.0 mi SSE 6.9 mph - N/A   Clear
3:35 PM 53.6 °F - 26.6 °F 35% 30.29 in 10.0 mi SSE 9.2 mph - N/A   Clear
3:55 PM 53.6 °F - 24.8 °F 33% 30.29 in 10.0 mi SSE 11.5 mph - N/A   Clear
4:15 PM 53.6 °F - 26.6 °F 35% 30.28 in 10.0 mi SSE 9.2 mph - N/A   Clear
4:35 PM 51.8 °F - 19.4 °F 28% 30.28 in 10.0 mi SSE 11.5 mph - N/A   Clear
4:55 PM 51.8 °F - 19.4 °F 28% 30.28 in 10.0 mi SSE 10.4 mph - N/A   Clear
5:15 PM 51.8 °F - 19.4 °F 28% 30.27 in 10.0 mi SSE 10.4 mph - N/A   Clear
5:35 PM 50.0 °F - 21.2 °F 32% 30.26 in 10.0 mi SE 9.2 mph - N/A   Clear
5:55 PM 50.0 °F - 21.2 °F 32% 30.26 in 10.0 mi SE 6.9 mph - N/A   Clear
6:15 PM 48.2 °F - 21.2 °F 34% 30.26 in 10.0 mi SE 5.8 mph - N/A   Clear
6:35 PM 48.2 °F - 23.0 °F 37% 30.25 in 10.0 mi ESE 4.6 mph - N/A   Clear
6:55 PM 46.4 °F 44.3 °F 24.8 °F 43% 30.25 in 10.0 mi ESE 4.6 mph - N/A   Clear
7:15 PM 46.4 °F 44.3 °F 24.8 °F 43% 30.25 in 10.0 mi ESE 4.6 mph - N/A   Clear
7:35 PM 46.4 °F 43.5 °F 24.8 °F 43% 30.26 in 10.0 mi SSE 5.8 mph - N/A   Scattered Clouds
7:55 PM 46.4 °F 44.3 °F 24.8 °F 43% 30.26 in 10.0 mi SSE 4.6 mph - N/A   Scattered Clouds
8:15 PM 46.4 °F 45.2 °F 26.6 °F 46% 30.26 in 10.0 mi SSE 3.5 mph - N/A   Partly Cloudy
8:35 PM 46.4 °F 43.5 °F 26.6 °F 46% 30.26 in 10.0 mi SSE 5.8 mph - N/A   Clear
8:55 PM 44.6 °F 41.4 °F 28.4 °F 53% 30.26 in 10.0 mi SSE 5.8 mph - N/A   Clear
9:15 PM 44.6 °F 40.7 °F 26.6 °F 49% 30.26 in 10.0 mi SE 6.9 mph - N/A   Partly Cloudy
9:35 PM 46.4 °F 42.4 °F 26.6 °F 46% 30.26 in 10.0 mi SE 8.1 mph - N/A   Partly Cloudy
9:55 PM 46.4 °F 44.3 °F 26.6 °F 46% 30.24 in 10.0 mi ESE 4.6 mph - N/A   Clear
10:15 PM 46.4 °F 42.9 °F 26.6 °F 46% 30.24 in 10.0 mi ESE 6.9 mph - N/A   Scattered Clouds
10:35 PM 46.4 °F 42.9 °F 26.6 °F 46% 30.23 in 10.0 mi ESE 6.9 mph - N/A   Scattered Clouds
10:55 PM 46.4 °F 43.5 °F 26.6 °F 46% 30.23 in 10.0 mi ESE 5.8 mph - N/A   Mostly Cloudy
11:15 PM 46.4 °F 42.9 °F 26.6 °F 46% 30.23 in 10.0 mi SSE 6.9 mph - N/A   Partly Cloudy
11:35 PM 46.4 °F 41.9 °F 26.6 °F 46% 30.22 in 10.0 mi SE 9.2 mph - N/A   Scattered Clouds
11:55 PM 46.4 °F 43.5 °F 26.6 °F 46% 30.21 in 10.0 mi ESE 5.8 mph - N/A   Scattered Clouds